Regional Weather Roundup
Issued by NWS

Home | Current Version | Previous Version | Graphics & Text | Print | Product List | Glossary On
Versions: 1 2 3 4 5 6 7 8 9 10 11 12 13 14 15 16 17 18 19 20 21 22 23 24 25 26 27 28 29 30 31 32 33 34 35 36 37 38 39 40 41 42 43 44 45 46 47 48 49 50
000
ASUS43 KTOP 240459
RWRKS

WEATHER ROUNDUP FOR KANSAS
NATIONAL WEATHER SERVICE GOODLAND KS
1200 AM CDT TUE MAY 24 2016

NOTE:  "FAIR" INDICATES FEW OR NO CLOUDS BELOW 12,000 FEET WITH NO
SIGNIFICANT WEATHER AND/OR OBSTRUCTIONS TO VISIBILITY.

KSZ001>006-013>018-027>032-041>047-240600-
NORTHWEST KANSAS

CITY           SKY/WX    TMP DP  RH WIND       PRES   REMARKS
GOODLAND       CLEAR     56  50  80 E7        29.85R
HAYS           CLOUDY    72  63  73 SE10      29.80F
HILL CITY      PTCLDY    65  62  90 E3        29.80S
RUSSELL        CLOUDY    69  65  86 SE12      29.79S THUNDER
$$

KSZ061>065-074>080-084>089-240600-
SOUTHWEST KANSAS

CITY           SKY/WX    TMP DP  RH WIND       PRES   REMARKS
DODGE CITY     CLEAR     67  55  65 S20G26    29.80R
ELKHART          N/A     65  60  84 SE15        N/A
GARDEN CITY    PTCLDY    70  67  90 SE22G30   29.79S
GREAT BEND     CLOUDY    72  63  73 S16G23    29.79S
LIBERAL        CLOUDY    73  64  73 SE20G26   29.80R
$$

KSZ066>073-081>083-090>101-240600-
SOUTHEAST KANSAS

CITY           SKY/WX    TMP DP  RH WIND       PRES   REMARKS
CHANUTE        CLOUDY    65  61  87 S7        29.90R
COFFEYVILLE    CLOUDY    66  64  93 S6        29.91R
HUTCHINSON     CLOUDY    70  66  87 SE14      29.83F
MEDICINE LODGE   N/A     71  67  87 S9        29.81S
NEWTON         CLOUDY    66  61  82 S14       29.88S
PARSONS        CLOUDY    67  64  90 S3        29.91R
WICHITA INTL   CLOUDY    69  65  86 S14       29.85S
WICHITA JABRA  CLOUDY    67  65  93 S14       29.86R
WICHITA MCCONL CLOUDY    68  64  88 S13       29.86S
WINFIELD       CLOUDY    68  65  90 S9        29.89R
$$

KSZ007>012-019>026-033>040-048>060-102>105-240600-
NORTHEAST KANSAS

CITY           SKY/WX    TMP DP  RH WIND       PRES   REMARKS
CONCORDIA      PTCLDY    68  60  75 S17G24    29.83R
EMPORIA        CLOUDY    65  61  87 S9        29.89R
LAWRENCE       CLOUDY    65  62  90 SE7       29.90R
MANHATTAN      MOCLDY    68  61  78 S9        29.86R
OLATHE IND     CLEAR     63  61  93 SE7       29.91R
OLATHE EXE     CLEAR     61  59  93 S7        29.91R
SALINA         CLOUDY    70  63  78 SE13      29.83S
TOPEKA BILLARD CLOUDY    65  62  90 SE6       29.89R
TOPEKA FORBES  MOCLDY    66  62  87 S8        29.89R
$$



USA.gov is the U.S. government's official web portal to all federal, state and local government web resources and services.